Farmington, MO

12:56 AM CST on February 23, 2018 (GMT -0600)
Farmington Regional

Weather History for KFAM - April, 2014

Change the Weather History Date:

Thursday, April 10, 2014

  Actual Average Record
Temperature  
Mean Temperature 67 °F -  
Max Temperature 84 °F 64 °F 84 °F (2014)
Min Temperature 50 °F 43 °F 33 °F (1997)
Cooling Degree Days 2    
Growing Degree Days 17 (Base 50)    
Moisture  
Dew Point 42 °F    
Average Humidity 45    
Maximum Humidity 64    
Minimum Humidity 20    
Precipitation  
Precipitation 0.00 in - - ()
Sea Level Pressure  
Sea Level Pressure 29.91 in    
Wind  
Wind Speed 13 mph (SSW)    
Max Wind Speed 22 mph    
Max Gust Speed 33 mph    
Visibility 10 miles    
Events      
Averages and records for this station are not official NWS values.
T = Trace of Precipitation, MM = Missing Value Source: NWS Daily Summary

Daily Weather History Graph

Daily Weather History Graph

Search for Another Location

Airport or City:

Trip Planner

Search our weather history database for the weather conditions in past years. The results will help you decide how hot, cold, wet, or windy it might be!

Date:

Astronomy

Apr. 10, 2014 Rise Set
Actual Time 6:33 AM CDT 7:32 PM CDT
Civil Twilight 6:06 AM CDT 7:59 PM CDT
Nautical Twilight 5:35 AM CDT 8:31 PM CDT
Astronomical Twilight 5:02 AM CDT 9:04 PM CDT
Moon 3:21 PM CDT (4/10) 3:51 AM CDT (4/10)
Length of Visible Light 13h 52m
Length of Day
12h 59m
Waxing Gibbous, 80% of the Moon is Illuminated
Apr 10
Waxing Gibbous
Apr 15
Full
Apr 22
Last Quarter
Apr 29
New
May 6
First Quarter

Hourly Weather History & Observations

Time (CDT) Temp. Dew Point Humidity Pressure Visibility Wind Dir Wind Speed Gust Speed Precip Events Conditions
12:15 AM 53.6 °F 35.6 °F 51% 30.02 in 10.0 mi South 9.2 mph - N/A   Clear
12:35 AM 53.6 °F 35.6 °F 51% 30.02 in 10.0 mi South 11.5 mph - N/A   Clear
12:55 AM 53.6 °F 35.6 °F 51% 30.01 in 10.0 mi South 10.4 mph - N/A   Clear
1:15 AM 53.6 °F 35.6 °F 51% 30.00 in 10.0 mi South 10.4 mph - N/A   Clear
1:35 AM 51.8 °F 35.6 °F 54% 30.00 in 10.0 mi South 10.4 mph - N/A   Clear
1:55 AM 51.8 °F 37.4 °F 58% 29.99 in 10.0 mi South 10.4 mph - N/A   Clear
2:15 AM 51.8 °F 37.4 °F 58% 29.98 in 10.0 mi South 10.4 mph - N/A   Clear
2:35 AM 51.8 °F 37.4 °F 58% 29.98 in 10.0 mi South 9.2 mph - N/A   Clear
2:55 AM 51.8 °F 37.4 °F 58% 29.96 in 10.0 mi South 8.1 mph - N/A   Clear
3:15 AM 51.8 °F 37.4 °F 58% 29.96 in 10.0 mi South 11.5 mph - N/A   Clear
3:35 AM 51.8 °F 37.4 °F 58% 29.95 in 10.0 mi South 13.8 mph - N/A   Clear
3:55 AM 51.8 °F 37.4 °F 58% 29.95 in 10.0 mi South 12.7 mph 17.3 mph N/A   Clear
4:15 AM 51.8 °F 37.4 °F 58% 29.94 in 10.0 mi South 11.5 mph 19.6 mph N/A   Clear
4:35 AM 51.8 °F 37.4 °F 58% 29.93 in 10.0 mi South 13.8 mph - N/A   Clear
4:55 AM 51.8 °F 37.4 °F 58% 29.93 in 10.0 mi South 15.0 mph 20.7 mph N/A   Clear
5:15 AM 51.8 °F 37.4 °F 58% 29.93 in 10.0 mi South 13.8 mph 20.7 mph N/A   Clear
5:35 AM 51.8 °F 37.4 °F 58% 29.92 in 10.0 mi South 15.0 mph 19.6 mph N/A   Clear
5:55 AM 50.0 °F 37.4 °F 62% 29.93 in 10.0 mi South 15.0 mph - N/A   Clear
6:15 AM 50.0 °F 37.4 °F 62% 29.92 in 10.0 mi South 16.1 mph - N/A   Clear
6:35 AM 50.0 °F 37.4 °F 62% 29.93 in 10.0 mi South 13.8 mph 18.4 mph N/A   Clear
6:55 AM 50.0 °F 37.4 °F 62% 29.93 in 10.0 mi South 16.1 mph 21.9 mph N/A   Clear
7:15 AM 51.8 °F 37.4 °F 58% 29.93 in 10.0 mi South 16.1 mph 21.9 mph N/A   Clear
7:35 AM 51.8 °F 37.4 °F 58% 29.93 in 10.0 mi South 16.1 mph - N/A   Clear
7:55 AM 53.6 °F 37.4 °F 54% 29.94 in 10.0 mi South 17.3 mph 23.0 mph N/A   Clear
8:15 AM 53.6 °F 39.2 °F 58% 29.93 in 10.0 mi South 16.1 mph - N/A   Clear
8:35 AM 55.4 °F 39.2 °F 54% 29.93 in 10.0 mi SSW 17.3 mph 25.3 mph N/A   Clear
8:55 AM 57.2 °F 39.2 °F 51% 29.92 in 10.0 mi SSW 15.0 mph 21.9 mph N/A   Clear
9:15 AM 60.8 °F 39.2 °F 45% 29.91 in 10.0 mi South 15.0 mph 21.9 mph N/A   Clear
9:35 AM 62.6 °F 39.2 °F 42% 29.91 in 10.0 mi South 15.0 mph 20.7 mph N/A   Clear
9:55 AM 64.4 °F 41.0 °F 42% 29.91 in 10.0 mi SSW 17.3 mph 23.0 mph N/A   Clear
10:15 AM 66.2 °F 41.0 °F 40% 29.90 in 10.0 mi South 16.1 mph 21.9 mph N/A   Clear
10:35 AM 69.8 °F 41.0 °F 35% 29.90 in 10.0 mi SSW 16.1 mph 28.8 mph N/A   Clear
10:55 AM 71.6 °F 41.0 °F 33% 29.91 in 10.0 mi SSW 13.8 mph 27.6 mph N/A   Clear
11:15 AM 71.6 °F 39.2 °F 31% 29.91 in 10.0 mi SSW 15.0 mph 21.9 mph N/A   Clear
11:35 AM 71.6 °F 41.0 °F 33% 29.91 in 10.0 mi SW 20.7 mph 26.5 mph N/A   Clear
11:55 AM 71.6 °F 42.8 °F 35% 29.90 in 10.0 mi SSW 18.4 mph 23.0 mph N/A   Clear
12:15 PM 75.2 °F 42.8 °F 31% 29.89 in 10.0 mi SSW 12.7 mph 23.0 mph N/A   Clear
12:35 PM 77.0 °F 44.6 °F 32% 29.87 in 10.0 mi SSW 18.4 mph 25.3 mph N/A   Clear
12:55 PM 80.6 °F 42.8 °F 26% 29.87 in 10.0 mi SSW 18.4 mph 28.8 mph N/A   Clear
1:15 PM 80.6 °F 42.8 °F 26% 29.86 in 10.0 mi SW 18.4 mph 27.6 mph N/A   Clear
1:35 PM 80.6 °F 42.8 °F 26% 29.85 in 10.0 mi SSW 16.1 mph 28.8 mph N/A   Clear
1:55 PM 82.4 °F 42.8 °F 25% 29.84 in 10.0 mi SSW 17.3 mph 27.6 mph N/A   Clear
2:15 PM 84.2 °F 42.8 °F 23% 29.83 in 10.0 mi SSW 16.1 mph 27.6 mph N/A   Clear
2:35 PM 84.2 °F 39.2 °F 20% 29.81 in 10.0 mi SW 20.7 mph 32.2 mph N/A   Clear
2:55 PM 84.2 °F 41.0 °F 22% 29.81 in 10.0 mi SSW 17.3 mph 25.3 mph N/A   Clear
3:15 PM 84.2 °F 41.0 °F 22% 29.81 in 10.0 mi SW 19.6 mph 33.4 mph N/A   Clear
3:35 PM 82.4 °F 46.4 °F 28% 29.81 in 10.0 mi South 18.4 mph 24.2 mph N/A   Clear
3:55 PM 80.6 °F 46.4 °F 30% 29.81 in 10.0 mi South 15.0 mph 24.2 mph N/A   Clear
4:15 PM 80.6 °F 48.2 °F 32% 29.81 in 10.0 mi South 19.6 mph 25.3 mph N/A   Clear
4:35 PM 80.6 °F 48.2 °F 32% 29.81 in 10.0 mi South 16.1 mph 25.3 mph N/A   Clear
4:55 PM 80.6 °F 48.2 °F 32% 29.81 in 10.0 mi South 21.9 mph 28.8 mph N/A   Clear
5:15 PM 80.6 °F 48.2 °F 32% 29.81 in 10.0 mi South 15.0 mph - N/A   Clear
5:35 PM 80.6 °F 48.2 °F 32% 29.82 in 10.0 mi South 18.4 mph 26.5 mph N/A   Clear
5:55 PM 78.8 °F 50.0 °F 36% 29.82 in 10.0 mi South 16.1 mph 24.2 mph N/A   Clear
6:15 PM 77.0 °F 48.2 °F 36% 29.83 in 10.0 mi South 18.4 mph 29.9 mph N/A   Clear
6:35 PM 75.2 °F 48.2 °F 38% 29.83 in 10.0 mi South 19.6 mph 27.6 mph N/A   Clear
6:55 PM 73.4 °F 48.2 °F 41% 29.84 in 10.0 mi South 20.7 mph 29.9 mph N/A   Scattered Clouds
7:15 PM 73.4 °F 48.2 °F 41% 29.88 in 10.0 mi West 4.6 mph 24.2 mph N/A   Mostly Cloudy
7:35 PM 73.4 °F 48.2 °F 41% 29.89 in 10.0 mi SW 13.8 mph 17.3 mph N/A   Overcast
7:55 PM 71.6 °F 50.0 °F 46% 29.90 in 10.0 mi WSW 13.8 mph 18.4 mph N/A   Overcast
8:15 PM 71.6 °F 46.4 °F 41% 29.91 in 10.0 mi WNW 5.8 mph - N/A   Mostly Cloudy
8:35 PM 69.8 °F 46.4 °F 43% 29.92 in 10.0 mi Calm Calm - N/A   Clear
8:55 PM 66.2 °F 46.4 °F 49% 29.93 in 10.0 mi WSW 3.5 mph - N/A   Partly Cloudy
9:15 PM 66.2 °F 46.4 °F 49% 29.93 in 10.0 mi South 5.8 mph - N/A   Partly Cloudy
9:35 PM 64.4 °F 46.4 °F 52% 29.94 in 10.0 mi South 6.9 mph - N/A   Clear
9:55 PM 64.4 °F 50.0 °F 59% 29.95 in 10.0 mi SSW 6.9 mph - N/A   Clear
10:15 PM 64.4 °F 51.8 °F 64% 29.95 in 10.0 mi South 10.4 mph - N/A   Clear
10:35 PM 66.2 °F 50.0 °F 56% 29.94 in 10.0 mi South 13.8 mph - N/A   Partly Cloudy
10:55 PM 66.2 °F 50.0 °F 56% 29.95 in 10.0 mi South 10.4 mph - N/A   Partly Cloudy
11:15 PM 64.4 °F 51.8 °F 64% 29.95 in 10.0 mi SSW 5.8 mph - N/A   Scattered Clouds
11:35 PM 66.2 °F 50.0 °F 56% 29.98 in 10.0 mi WNW 3.5 mph - N/A   Mostly Cloudy
11:55 PM 64.4 °F 50.0 °F 59% 29.98 in 10.0 mi NNW 8.1 mph - N/A   Scattered Clouds